Location: Austin
(30.3000°N, 97.7500°W)
Time: 01:42:36
(UTC-05:00)

Cosmos 1459 Rocket - Pass Details

Date: 15 May 2024
Orbit: 936 x 999 km, 83.0° (Epoch: 19 May)

Event Time Altitude Azimuth Distance (km) Brightness Sun altitude
Rises 20:50:40 0° 351° (N) 3,675 7.6 -7.1°
Reaches altitude 10° 20:53:10 10° 349° (N) 2,733 6.9 -7.6°
Maximum altitude 20:59:25 71° 267° (W) 1,041 4.4 -8.8°
Drops below altitude 10° 21:05:42 10° 184° (S) 2,752 6.1 -10.0°
Sets 21:08:14 0° 182° (S) 3,701 6.8 -10.5°
